Latest Weather Observations for Tasman Island

IDT60901

Issued at 8:31 pm EDT Sunday 29 March 2015 (issued every 10 minutes, with the page automatically refreshed every 10 minutes)

About weather observations | Map of Hobart area stations | Latest observations for Hobart area | Other Formats
Station Details ID: 094155 Name: TASMAN ISLAND Lat: -43.24 Lon: 148.00 Height: 240.0 m
Data from the previous 72 hours. | See also: Recent months at Tasman Island
Date/Time
EDT
Tmp

°C
App
Tmp
°C
Dew
Point
°C
Rel
Hum
%
Delta-T

°C
Wind Press
QNH
hPa
Press
MSL
hPa
Rain
since
9 am
mm
Dir
 
Spd
km/h
Gust
km/h
Spd
kts
Gust
kts
29/08:30pm 11.2 8.3 8.2 82 1.5 SSW 13 24 7 13 1017.5 1017.3 3.0
29/08:00pm 10.9 6.7 7.6 80 1.6 SW 19 35 10 19 1017.1 1016.9 3.0
29/07:30pm 11.3 8.0 8.0 80 1.6 SSW 15 32 8 17 1017.1 1016.9 3.0
29/07:00pm 11.3 9.1 9.2 87 1.1 SSW 11 24 6 13 1016.8 1016.6 3.0
29/06:30pm 11.3 8.7 9.2 87 1.1 SSW 13 28 7 15 1016.5 1016.3 3.0
29/06:00pm 11.2 7.8 9.3 88 1.0 SSW 17 28 9 15 1016.1 1015.9 3.0
29/05:30pm 11.1 8.4 10.5 96 0.3 SW 15 26 8 14 1016.0 1015.8 3.0
29/05:00pm 10.6 7.2 10.4 99 0.1 SW 19 28 10 15 1016.0 1015.8 3.0
29/04:30pm 10.1 6.0 10.0 99 0.1 SW 22 37 12 20 1015.7 1015.5 3.0
29/04:00pm 10.4 8.1 10.4 100 0.0 SW 13 26 7 14 1015.7 1015.5 3.0
29/03:30pm 10.3 7.2 10.3 100 0.0 SSW 17 35 9 19 1015.7 1015.5 3.0
29/03:00pm 10.2 7.1 10.2 100 0.0 SW 17 26 9 14 1015.7 1015.5 2.8
29/02:30pm 9.9 6.3 9.9 100 0.0 SW 19 32 10 17 1015.5 1015.2 2.6
29/02:00pm 10.3 7.2 10.3 100 0.0 SW 17 26 9 14 1015.3 1015.0 2.0
29/01:30pm 9.8 5.2 9.7 99 0.1 SW 24 39 13 21 1015.2 1014.9 1.6
29/01:22pm 9.8 4.5 9.7 99 0.1 SW 28 48 15 26 1015.2 1014.9 1.4
29/01:00pm 10.0 6.4 9.9 99 0.1 SSW 19 33 10 18 1015.1 1014.8 1.0
29/12:32pm 11.4 6.9 10.1 92 0.7 SSW 24 46 13 25 1015.0 1014.7 0.2
29/12:30pm 11.7 7.9 9.9 89 0.9 S 20 44 11 24 1014.9 1014.6 0.2
29/12:08pm 13.5 7.1 8.6 72 2.5 WNW 32 50 17 27 1014.2 1014.0 0.0
29/12:00pm 13.9 5.3 8.3 69 2.8 NW 43 57 23 31 1014.0 1013.8 0.0
29/11:42am 13.9 4.7 8.1 68 2.9 NW 46 65 25 35 1013.6 1013.4 0.0
29/11:30am 14.1 4.4 7.6 65 3.2 NW 48 61 26 33 1013.5 1013.3 0.0
29/11:00am 14.0 5.3 7.5 65 3.2 NW 43 57 23 31 1013.7 1013.5 0.0
29/10:30am 14.4 6.8 7.7 64 3.4 NW 37 54 20 29 1013.7 1013.5 0.0
29/10:20am 15.5 9.3 7.8 60 3.9 NW 30 48 16 26 1013.9 1013.7 0.0
29/10:00am 15.7 11.5 8.4 62 3.7 NW 20 32 11 17 1014.2 1014.0 0.0
29/09:30am 13.5 7.9 7.3 66 3.1 NW 26 39 14 21 1013.8 1013.6 0.0
29/09:00am 13.3 8.8 6.9 65 3.1 WNW 20 33 11 18 1013.9 1013.7 0.2
29/08:32am 12.8 6.7 6.6 66 3.0 WNW 28 48 15 26 1013.6 1013.4 0.2
29/08:30am 12.8 6.7 6.6 66 3.0 WNW 28 44 15 24 1013.6 1013.4 0.2
29/08:04am 12.3 5.2 6.6 68 2.8 NW 33 56 18 30 1013.2 1013.0 0.2
29/08:00am 12.2 5.3 6.5 68 2.7 NW 32 46 17 25 1013.2 1013.0 0.2
29/07:30am 11.6 7.0 6.3 70 2.5 WNW 20 33 11 18 1013.6 1013.4 0.2
29/07:00am 11.5 6.1 6.2 70 2.5 WNW 24 39 13 21 1013.7 1013.5 0.2
29/06:30am 11.2 6.6 6.3 72 2.3 NW 20 35 11 19 1013.5 1013.3 0.2
29/06:00am 11.5 4.5 6.0 69 2.6 NW 32 54 17 29 1013.1 1012.9 0.2
29/05:34am 10.7 4.2 6.5 75 2.0 NW 30 48 16 26 1013.3 1013.1 0.2
29/05:30am 10.9 4.0 6.5 74 2.1 NW 32 48 17 26 1013.4 1013.2 0.2
29/05:29am 10.7 3.8 6.5 75 2.0 NW 32 48 17 26 1013.4 1013.2 0.2
29/05:00am 10.0 5.6 6.5 79 1.7 N 19 28 10 15 1013.3 1013.1 0.2
29/04:30am 10.5 6.2 6.8 78 1.8 WNW 19 28 10 15 1014.6 1014.3 0.2
29/04:00am 10.5 6.6 7.2 80 1.6 WNW 17 26 9 14 1013.9 1013.7 0.2
29/03:30am 10.7 8.9 7.2 79 1.7 NW 6 15 3 8 1014.2 1014.0 0.2
29/03:00am 10.7 8.0 7.2 79 1.7 NNW 11 26 6 14 1014.3 1014.1 0.2
29/02:30am 10.8 8.2 7.7 81 1.5 WNW 11 20 6 11 1014.9 1014.6 0.2
29/02:00am 10.7 8.5 7.9 83 1.4 NW 9 15 5 8 1015.2 1014.9 0.2
29/01:30am 11.2 7.9 8.1 81 1.5 NW 15 22 8 12 1015.5 1015.2 0.2
29/01:00am 11.2 9.2 8.8 85 1.2 NW 9 17 5 9 1015.7 1015.5 0.2
29/12:30am 11.3 7.5 9.2 87 1.1 N 19 26 10 14 1015.9 1015.7 0.2
29/12:00am 11.7 7.4 9.3 85 1.2 N 22 35 12 19 1016.4 1016.2 0.2
 
Date/Time
EDT
Tmp

°C
App
Tmp
°C
Dew
Point
°C
Rel
Hum
%
Delta-T

°C
Wind Press
QNH
hPa
Press
MSL
hPa
Rain
since
9 am
mm
Dir
 
Spd
km/h
Gust
km/h
Spd
kts
Gust
kts
28/11:30pm 11.9 7.2 9.3 84 1.3 NNE 24 35 13 19 1016.8 1016.6 0.2
28/11:00pm 12.0 7.6 9.0 82 1.5 N 22 28 12 15 1017.2 1017.0 0.2
28/10:30pm 11.9 7.4 8.6 80 1.7 N 22 30 12 16 1017.7 1017.5 0.2
28/10:00pm 12.1 7.6 8.4 78 1.8 NNE 22 33 12 18 1018.0 1017.8 0.2
28/09:30pm 12.0 8.1 8.8 81 1.6 NNE 19 26 10 14 1018.1 1017.9 0.2
28/09:00pm 11.6 7.2 8.8 83 1.4 NNE 22 28 12 15 1018.1 1017.9 0.2
28/08:30pm 11.5 7.4 8.7 83 1.4 NNE 20 26 11 14 1018.1 1017.9 0.2
28/08:00pm 11.3 7.7 8.5 83 1.4 NNE 17 26 9 14 1018.1 1017.9 0.2
28/07:30pm 11.2 7.9 8.2 82 1.5 NE 15 24 8 13 1018.2 1018.0 0.2
28/07:00pm 11.0 8.9 8.2 83 1.4 NE 9 19 5 10 1018.3 1018.1 0.2
28/06:30pm 11.3 10.1 8.2 81 1.5 E 4 7 2 4 1018.4 1018.2 0.2
28/06:00pm 11.9 11.1 8.2 78 1.8 NE 2 6 1 3 1018.4 1018.2 0.2
28/05:30pm 12.4 11.2 8.1 75 2.1 SE 4 7 2 4 1018.4 1018.2 0.2
28/05:00pm 13.0 11.4 8.9 76 2.1 SSE 7 13 4 7 1018.2 1018.0 0.2
28/04:30pm 12.7 11.0 8.4 75 2.2 SE 7 11 4 6 1018.4 1018.2 0.2
28/04:00pm 13.1 11.2 9.0 76 2.1 SSE 9 13 5 7 1018.7 1018.5 0.2
28/03:30pm 13.4 11.0 8.5 72 2.5 SW 11 17 6 9 1018.9 1018.6 0.2
28/03:00pm 13.9 11.2 8.9 72 2.6 SSW 13 17 7 9 1019.0 1018.7 0.2
28/02:30pm 14.3 12.1 7.8 65 3.3 SW 9 17 5 9 1019.3 1019.1 0.2
28/02:00pm 14.6 12.7 7.6 63 3.5 W 7 19 4 10 1019.6 1019.4 0.2
28/01:30pm 13.0 10.6 6.8 66 3.0 WNW 9 19 5 10 1019.9 1019.7 0.2
28/01:00pm 13.2 11.3 6.5 64 3.2 WSW 6 20 3 11 1020.1 1019.9 0.2
28/12:30pm 13.6 11.1 6.7 63 3.4 W 9 24 5 13 1020.4 1020.2 0.2
28/12:00pm 12.8 10.7 6.6 66 3.0 WNW 7 24 4 13 1020.5 1020.3 0.0
28/11:30am 12.9 10.9 7.1 68 2.8 W 7 19 4 10 1020.7 1020.5 0.0
28/11:00am 12.8 10.8 7.3 69 2.7 W 7 20 4 11 1020.8 1020.6 0.0
28/10:30am 11.8 9.8 6.3 69 2.6 S 6 19 3 10 1020.8 1020.6 0.0
28/10:00am 11.5 9.0 6.6 72 2.3 WSW 9 20 5 11 1020.7 1020.5 0.0
28/09:30am 10.8 8.3 6.7 76 2.0 NW 9 22 5 12 1020.6 1020.4 0.0
28/09:00am 10.9 8.8 6.8 76 2.0 N 7 28 4 15 1020.4 1020.2 2.4
28/08:30am 10.9 8.9 6.3 73 2.2 N 6 17 3 9 1020.2 1020.0 2.4
28/08:00am 10.7 8.1 6.1 73 2.2 WNW 9 28 5 15 1020.0 1019.8 2.4
28/07:30am 10.8 6.7 6.4 74 2.1 SW 17 41 9 22 1019.7 1019.5 2.4
28/07:00am 10.7 7.4 6.5 75 2.0 W 13 35 7 19 1019.5 1019.3 2.4
28/06:30am 10.8 6.7 6.2 73 2.2 SW 17 37 9 20 1019.2 1018.9 2.4
28/06:14am 10.7 4.4 5.9 72 2.3 WSW 28 46 15 25 1019.2 1018.9 2.4
28/06:00am 10.6 5.4 5.6 71 2.3 WSW 22 61 12 33 1019.2 1018.9 2.4
28/05:30am 10.0 4.9 7.6 85 1.2 SW 24 70 13 38 1019.0 1018.7 2.4
28/05:21am 10.0 2.5 7.8 86 1.1 SW 37 70 20 38 1018.7 1018.5 2.4
28/05:19am 10.1 3.4 8.0 87 1.0 SW 33 67 18 36 1018.7 1018.5 2.4
28/05:00am 10.2 4.7 7.4 83 1.4 SW 26 52 14 28 1018.7 1018.5 2.4
28/04:30am 10.3 4.8 9.2 93 0.6 SSW 28 63 15 34 1018.6 1018.4 2.4
28/04:29am 10.3 4.8 9.2 93 0.6 SSW 28 63 15 34 1018.6 1018.4 2.4
28/04:00am 9.4 4.3 9.1 98 0.1 SW 26 50 14 27 1019.0 1018.7 2.4
28/03:30am 10.0 7.0 9.4 96 0.3 SW 15 44 8 24 1019.3 1019.1 2.4
28/03:00am 11.1 6.5 8.1 82 1.5 SW 22 46 12 25 1019.3 1019.1 2.4
28/02:30am 11.2 6.1 7.5 78 1.8 SW 24 52 13 28 1019.2 1018.9 2.4
28/02:04am 10.8 5.1 8.4 85 1.2 SW 28 52 15 28 1019.5 1019.3 2.4
28/02:00am 10.8 5.5 8.4 85 1.2 SW 26 52 14 28 1019.4 1019.2 2.4
28/01:32am 11.1 4.6 8.1 82 1.5 SW 32 52 17 28 1019.3 1019.1 2.4
28/01:30am 11.1 4.4 8.3 83 1.4 SW 33 52 18 28 1019.3 1019.1 2.4
28/01:00am 11.1 5.3 9.5 90 0.8 SW 30 54 16 29 1019.2 1018.9 2.4
28/12:30am 10.7 5.2 10.5 99 0.1 SW 30 50 16 27 1019.2 1018.9 2.4
28/12:01am 10.2 4.0 9.9 98 0.2 SW 33 52 18 28 1019.1 1018.8 2.4
28/12:00am 10.1 3.4 9.8 98 0.2 SW 35 52 19 28 1019.1 1018.8 2.4
 
Date/Time
EDT
Tmp

°C
App
Tmp
°C
Dew
Point
°C
Rel
Hum
%
Delta-T

°C
Wind Press
QNH
hPa
Press
MSL
hPa
Rain
since
9 am
mm
Dir
 
Spd
km/h
Gust
km/h
Spd
kts
Gust
kts
27/11:30pm 11.2 5.1 10.4 95 0.4 SSW 33 61 18 33 1019.0 1018.7 2.4
27/11:01pm 11.6 6.2 9.5 87 1.1 SSW 28 48 15 26 1019.1 1018.8 2.4
27/11:00pm 11.6 6.5 9.3 86 1.2 SSW 26 46 14 25 1019.1 1018.8 2.4
27/10:30pm 11.4 5.0 9.5 88 1.0 SSW 33 41 18 22 1019.0 1018.7 2.4
27/10:00pm 11.5 5.3 9.4 87 1.1 SSW 32 44 17 24 1018.9 1018.6 2.4
27/09:30pm 11.5 5.0 9.1 85 1.2 SSW 33 46 18 25 1018.6 1018.4 2.4
27/09:00pm 11.4 4.6 9.1 86 1.2 SSW 35 50 19 27 1018.4 1018.2 2.4
27/08:30pm 11.6 4.8 9.3 86 1.2 SSW 35 50 19 27 1018.0 1017.8 2.4
27/08:00pm 11.3 6.1 10.2 93 0.6 SSW 28 43 15 23 1017.5 1017.3 2.2
27/07:44pm 11.7 5.6 10.6 93 0.6 SSW 33 52 18 28 1017.4 1017.2 2.2
27/07:30pm 11.4 5.3 10.3 93 0.6 SSW 33 48 18 26 1017.1 1016.9 2.2
27/07:08pm 11.2 5.0 10.0 92 0.6 SSW 33 54 18 29 1016.8 1016.6 2.2
27/07:00pm 11.4 5.4 10.0 91 0.7 SSW 32 48 17 26 1016.6 1016.4 2.2
27/06:55pm 11.5 6.3 10.1 91 0.7 SSW 28 48 15 26 1016.6 1016.4 2.2
27/06:30pm 11.4 5.6 10.8 96 0.3 SSW 32 46 17 25 1016.2 1016.0 2.2
27/06:11pm 10.9 5.1 10.7 99 0.1 SSW 32 50 17 27 1015.9 1015.7 2.2
27/06:00pm 11.1 4.7 10.6 97 0.3 SSW 35 50 19 27 1015.8 1015.6 2.2
27/05:30pm 12.2 6.3 10.6 90 0.8 SSW 32 43 17 23 1015.5 1015.2 2.2
27/05:13pm 12.2 7.2 10.8 91 0.7 SSW 28 46 15 25 1015.3 1015.0 2.2
27/05:00pm 12.3 7.2 10.7 90 0.8 SSW 28 39 15 21 1015.1 1014.8 2.2
27/04:30pm 12.4 7.7 10.6 89 0.9 SSW 26 37 14 20 1014.9 1014.6 2.2
27/04:00pm 13.6 9.9 11.5 87 1.1 SSW 22 37 12 20 1014.7 1014.4 2.2
27/03:30pm 13.2 9.0 11.1 87 1.1 SSW 24 39 13 21 1014.5 1014.2 2.2
27/03:00pm 12.9 8.9 10.6 86 1.2 SSW 22 37 12 20 1014.2 1014.0 2.2
27/02:30pm 13.2 8.5 10.7 85 1.3 SSW 26 43 14 23 1013.8 1013.6 2.2
27/02:00pm 12.7 8.5 11.1 90 0.9 SSW 24 41 13 22 1013.5 1013.3 2.2
27/01:30pm 14.6 11.5 10.2 75 2.3 S 17 28 9 15 1013.6 1013.4 2.2
27/01:00pm 13.8 10.1 9.5 75 2.2 SSE 19 32 10 17 1013.4 1013.2 2.2
27/12:30pm 12.9 8.3 9.5 80 1.8 SSE 24 41 13 22 1013.0 1012.8 2.2
27/12:00pm 12.9 8.4 10.1 83 1.5 SSE 24 37 13 20 1012.5 1012.3 2.2
27/11:30am 12.2 9.0 12.0 99 0.1 S 20 35 11 19 1012.1 1011.9 2.2
27/11:00am 11.7 8.4 11.5 99 0.1 S 20 35 11 19 1011.5 1011.2 2.0
27/10:30am 11.3 7.5 11.3 100 0.0 S 22 35 12 19 1011.2 1010.9 1.6
27/10:00am 11.7 8.4 11.7 100 0.0 S 20 35 11 19 1010.9 1010.6 1.6
27/09:30am 10.8 7.3 10.8 100 0.0 S 20 35 11 19 1010.5 1010.2 1.6
27/09:00am 10.2 5.0 10.2 100 0.0 SSW 28 39 15 21 1010.1 1009.8 84.0
27/08:30am 10.1 5.6 10.1 100 0.0 SSW 24 35 13 19 1009.5 1009.3 83.2
27/08:00am 10.3 6.8 10.3 100 0.0 S 19 48 10 26 1009.1 1008.9 82.8
27/07:30am 9.6 7.5 9.6 100 0.0 NE 11 37 6 20 1008.6 1008.4 78.0
27/07:00am 9.4 7.6 9.4 100 0.0 SW 9 26 5 14 1008.4 1008.1 76.4
27/06:30am 9.3 7.8 9.3 100 0.0 ENE 7 26 4 14 1008.3 1008.0 75.4
27/06:00am 9.3 7.5 9.3 100 0.0 SE 9 30 5 16 1008.1 1007.8 75.2
27/05:30am 9.4 7.6 9.4 100 0.0 NNE 9 20 5 11 1008.1 1007.8 73.6
27/05:00am 9.6 8.2 9.5 99 0.1 SE 7 30 4 16 1008.4 1008.1 71.0
27/04:30am 9.4 7.9 9.3 99 0.1 ESE 7 28 4 15 1008.2 1007.9 70.8
27/04:00am 9.7 7.6 9.6 99 0.1 W 11 30 6 16 1008.5 1008.3 69.8
27/03:30am 9.8 6.9 9.7 99 0.1 WSW 15 35 8 19 1008.6 1008.4 69.2
27/03:00am 9.9 6.7 9.8 99 0.1 WSW 17 35 9 19 1009.0 1008.8 67.4
27/02:30am 9.7 6.8 9.6 99 0.1 SW 15 32 8 17 1009.3 1009.1 65.8
27/02:00am 9.9 7.0 9.8 99 0.1 SW 15 37 8 20 1009.4 1009.2 64.6
27/01:39am 9.9 4.6 9.8 99 0.1 SSW 28 50 15 27 1009.4 1009.2 64.2
27/01:30am 10.0 5.8 9.9 99 0.1 SSW 22 41 12 22 1009.4 1009.2 64.0
27/01:09am 9.8 4.1 9.7 99 0.1 SW 30 48 16 26 1009.6 1009.4 63.6
27/01:00am 10.0 5.8 9.9 99 0.1 SW 22 43 12 23 1009.6 1009.4 61.8
27/12:44am 9.7 4.3 9.6 99 0.1 SW 28 48 15 26 1009.8 1009.6 61.0
27/12:30am 9.5 4.5 9.4 99 0.1 SW 26 43 14 23 1010.2 1009.9 60.6
27/12:00am 9.6 5.7 9.6 100 0.0 SSW 20 35 11 19 1010.3 1010.0 60.4
 
Date/Time
EDT
Tmp

°C
App
Tmp
°C
Dew
Point
°C
Rel
Hum
%
Delta-T

°C
Wind Press
QNH
hPa
Press
MSL
hPa
Rain
since
9 am
mm
Dir
 
Spd
km/h
Gust
km/h
Spd
kts
Gust
kts
26/11:30pm 9.7 5.5 9.6 99 0.1 SSW 22 33 12 18 1010.8 1010.5 59.0
26/11:00pm 9.6 4.2 9.5 99 0.1 SSW 28 44 15 24 1010.8 1010.5 54.8
26/10:30pm 9.9 5.7 9.8 99 0.1 WSW 22 56 12 30 1010.4 1010.1 49.2
26/10:29pm 9.8 5.6 9.7 99 0.1 WSW 22 54 12 29 1010.4 1010.1 49.0
26/10:00pm 8.9 5.6 8.1 95 0.4 W 15 33 8 18 1010.7 1010.4 25.0
26/09:30pm 10.4 6.6 7.6 83 1.4 W 17 43 9 23 1010.4 1010.1 17.2
26/09:00pm 11.1 10.1 10.3 95 0.4 W 6 17 3 9 1010.7 1010.4 17.2

Latest Capital City Observations: Canberra | Sydney | Melbourne | Brisbane | Adelaide | Perth | Hobart | Darwin

Other Formats:

Comma delimited format used in spreadsheet applications
http://www.bom.gov.au/fwo/IDT60901/IDT60901.95986.axf

JavaScript Object Notation format (JSON) in row-major order
http://www.bom.gov.au/fwo/IDT60901/IDT60901.95986.json